Wetbulb
51.31 49.25 46.33 43.88 43.30 42.09 41.42 41.40 41.02 39.27 38.37 37.85 36.84 36.04 34.84 33.81 32.33 31.56 31.12 29.91 29.46 29.34
50.91 49.81 45.97 44.05 43.78 42.82 42.32 41.93 40.97 39.84 38.29 37.56 36.74 35.87 34.11 33.72 31.95 30.82 29.64 28.99 28.83 28.51
50.83 49.78 46.79 43.68 42.46 42.09 41.71 41.33 40.09 39.40 38.04 37.01 36.48 34.31 34.10 31.91 30.42 30.35 28.54 28.87 28.26 27.95
50.35 49.24 46.71 43.02 42.61 42.01 41.72 40.54 39.36 39.16 37.82 37.05 36.00 34.74 33.86 32.10 30.91 30.21 29.03 28.63 28.54 28.15
50.81 49.34 47.11 43.96 43.63 42.87 41.53 40.88 39.58 39.11 37.90 37.36 36.13 34.73 33.86 31.80 32.04 30.67 29.50 29.00 28.19 27.72
51.34 49.64 47.75 44.50 43.51 42.56 41.51 40.40 39.76 39.35 38.00 36.93 36.16 34.15 34.17 33.43 31.77 31.34 30.87 30.02 29.16 28.12
51.95 50.75 48.73 45.12 43.38 42.12 41.56 40.12 39.47 39.15 38.47 37.41 36.20 34.42 34.02 32.88 31.47 30.95 30.35 29.95 29.67 28.86
52.34 52.13 49.76 45.08 43.10 41.97 41.10 40.15 39.68 38.63 37.93 37.22 35.89 34.76 32.94 32.24 31.16 30.40 29.03 28.90 29.29 29.26
51.89 51.21 49.50 44.15 42.62 40.95 39.97 39.49 38.73 37.61 36.85 35.03 35.14 38.34 37.95 34.65 31.62 30.21 29.58 28.41 28.44 29.23
49.41 49.01 48.07 44.05 42.05 40.03 38.89 38.55 37.57 36.66 35.53 34.28 34.85 39.46 38.97 38.12 32.99 31.14 30.52 29.49 28.89 29.42
43.97 45.35 42.58 41.95 40.77 39.62 38.29 37.25 36.25 35.29 34.40 33.45 33.74 39.56 39.97 39.15 32.71 31.46 30.66 30.48 30.29 29.98
39.82 39.91 40.11 39.65 39.31 38.18 36.90 35.75 34.54 33.59 32.76 32.33 32.38 39.31 39.88 37.90 31.21 30.20 29.82 30.61 31.12 31.43
37.21 38.03 38.17 37.84 36.65 36.53 35.75 33.72 32.33 31.44 32.16 33.88 31.32 39.41 39.97 35.71 31.35 29.68 29.86 30.83 31.49 34.51
35.03 35.20 35.72 35.08 34.02 33.78 31.82 30.26 29.83 29.29 29.56 31.59 33.32 37.08 40.11 35.90 31.52 30.75 29.90 29.78 30.56 32.05
MSLP
1010.13 1011.15 1011.98 1012.67 1013.43 1013.88 1014.83 1015.69 1017.07 1017.79 1018.62 1019.52 1020.18 1020.88 1021.59 1022.33 1022.75 1023.31 1023.66 1024.09 1024.45 1025.01
1009.16 1010.24 1010.92 1011.67 1012.47 1013.51 1014.27 1015.28 1016.08 1017.13 1017.94 1018.95 1019.81 1020.46 1021.12 1022.02 1022.43 1023.08 1023.52 1024.05 1024.36 1024.80
1008.33 1009.56 1010.36 1011.24 1011.96 1012.83 1013.89 1014.78 1015.56 1016.47 1017.52 1018.37 1019.37 1020.22 1020.87 1021.62 1022.30 1022.99 1023.45 1023.84 1024.29 1024.91
1007.89 1008.92 1009.80 1010.63 1011.47 1012.31 1013.16 1013.94 1014.93 1015.87 1016.92 1017.80 1018.59 1019.62 1020.49 1021.08 1021.92 1022.70 1023.32 1023.65 1023.96 1024.86
1007.23 1008.19 1008.96 1009.75 1010.67 1011.72 1012.49 1013.45 1014.23 1015.31 1016.30 1017.19 1017.89 1018.75 1019.68 1020.45 1021.27 1022.08 1022.87 1023.27 1023.96 1024.47
1006.70 1007.47 1008.31 1009.20 1010.10 1011.11 1012.09 1012.96 1014.03 1014.69 1015.61 1016.39 1017.10 1018.03 1019.01 1019.70 1020.56 1021.29 1022.14 1022.68 1023.41 1023.77
1006.10 1006.79 1007.65 1008.48 1009.46 1010.34 1011.28 1012.31 1013.28 1014.00 1014.68 1015.66 1016.47 1017.38 1018.20 1019.15 1019.96 1020.81 1021.52 1022.23 1022.80 1023.08
1005.79 1006.29 1006.92 1007.83 1008.87 1009.82 1010.70 1011.52 1012.33 1013.19 1014.11 1015.03 1015.78 1016.57 1017.52 1018.55 1019.36 1020.15 1021.04 1021.72 1022.28 1022.70
1005.62 1006.16 1006.58 1007.39 1008.31 1009.30 1010.18 1010.96 1011.88 1012.80 1013.67 1014.43 1015.13 1015.87 1016.70 1017.46 1018.51 1019.41 1020.30 1021.26 1021.82 1022.41
1005.60 1005.96 1006.39 1007.03 1007.92 1008.80 1009.69 1010.52 1011.39 1012.27 1013.24 1013.92 1014.53 1015.24 1015.91 1016.87 1017.89 1018.73 1019.59 1020.40 1021.39 1022.05
1006.10 1005.97 1006.26 1006.82 1007.49 1008.45 1009.37 1010.07 1010.90 1011.84 1012.58 1013.39 1014.02 1014.45 1015.46 1016.55 1017.63 1018.28 1019.01 1019.78 1020.62 1021.37
1006.71 1006.59 1006.49 1007.02 1007.58 1008.36 1009.19 1010.08 1010.90 1011.57 1012.20 1013.01 1013.60 1014.14 1015.13 1016.17 1017.40 1017.90 1018.69 1019.35 1020.12 1020.88
1007.03 1007.00 1007.00 1007.20 1007.70 1008.33 1008.99 1009.85 1010.70 1011.41 1011.98 1012.46 1013.35 1013.99 1014.71 1015.69 1016.77 1017.52 1018.34 1019.29 1020.04 1020.61
1007.24 1007.20 1007.31 1007.53 1007.86 1008.42 1009.29 1010.26 1010.98 1011.58 1012.22 1012.62 1013.15 1013.58 1014.25 1015.55 1016.16 1016.87 1017.76 1018.60 1019.69 1020.43
Wind_Speed
17 11 11 14 12 12 12 12 13 13 12 12 11 10 9 6 5 6 5 7 5 4
18 18 16 16 14 12 12 11 14 14 13 12 11 11 10 7 7 6 5 6 6 4
20 16 13 13 15 14 13 13 14 15 13 13 12 10 11 6 5 7 4 4 7 4
16 16 13 13 14 14 14 14 14 15 14 14 14 12 12 9 9 9 8 6 7 7
14 15 15 14 15 15 15 15 16 15 15 15 14 13 14 13 11 12 11 10 8 8
15 15 15 14 15 15 15 14 14 16 16 16 15 14 14 14 13 12 11 11 11 10
15 15 15 14 16 16 16 16 16 16 16 15 15 14 14 13 12 11 10 10 10 11
11 14 14 14 15 14 15 15 15 15 14 14 13 12 14 14 13 13 11 9 9 8
11 11 11 12 14 14 14 14 14 14 14 14 11 21 26 19 14 13 13 12 9 7
7 10 11 13 15 15 15 14 14 14 14 14 14 23 27 25 13 13 13 12 11 8
3 7 7 12 14 13 12 14 13 13 13 12 12 23 25 25 11 11 11 12 12 11
4 4 8 9 11 10 10 10 10 11 13 13 11 22 25 21 11 11 12 11 11 10
4 4 6 10 10 9 10 10 8 10 10 14 10 22 25 19 9 11 9 9 9 17
4 3 4 6 6 10 10 9 8 8 7 9 11 17 26 23 10 10 10 10 9 7
Wind_Direction
192 192 191 186 181 183 188 187 181 185 180 184 177 176 173 179 176 174 175 170 157 143
195 193 191 185 180 183 180 184 176 183 178 180 179 178 170 181 177 169 163 167 155 139
198 196 185 177 181 182 180 180 173 178 181 174 178 174 174 170 155 165 167 158 154 152
191 189 181 179 182 180 175 174 175 180 180 181 178 177 181 174 164 172 170 160 163 170
185 185 186 181 184 179 180 179 175 178 182 185 184 179 183 177 179 179 181 176 166 171
188 190 193 184 180 180 179 179 183 181 186 187 185 179 186 184 180 182 184 178 180 173
192 191 192 182 183 181 180 180 183 187 186 188 184 184 184 183 178 177 179 178 182 172
193 198 188 177 182 181 183 182 183 182 185 186 184 185 180 181 178 178 174 175 177 181
195 193 184 173 179 176 180 179 180 183 182 182 189 193 191 180 180 177 177 179 177 171
202 187 181 169 176 180 180 175 180 180 180 186 190 194 193 188 183 177 180 173 172 171
250 185 154 169 177 176 174 176 178 177 180 182 191 190 190 189 179 174 173 170 171 171
319 216 155 168 168 167 164 170 169 176 176 181 187 186 183 177 171 166 169 164 161 160
303 199 182 157 159 161 165 164 164 171 180 184 173 182 181 165 169 166 157 151 158 169
283 185 162 146 144 148 147 149 158 158 160 166 174 178 177 175 171 167 157 153 156 165